Home > Time Zones > World Clock > Weather > Spain > Cadiz > Past weeks

Flag for Spain Weather past 2 weeks in Cadiz, Cádiz, Spain

Now
54 °F

Passing clouds.


Feels Like: 50 °F
Forecast: 56 / 65 °F
Wind: 12 mph from Northeast

Location: Rota Airport

Current Time: Dec 21, 2014 at 4:15:57 PM

Latest Report: Dec 21, 2014 at 3:00 PM


Visibility: 5 mi

Pressure: 30.36 "Hg

Humidity: 94%

Dew point: 52 °F

Location of CadizLocation

Historic Weather in Cadiz — Graph

°F

Cadiz temperature yesterday

Maximum temperature yesterday: 50 °F (at 5:00 PM)
Minimum temperature yesterday: 45 °F (at 10:00 AM)
Average temperature yesterday: 48 °F

Past Weeks' High & Low Weather Summary

 TemperatureHumidityPressure
High63 °F (Dec 12, 2:00 PM)100% (Dec 12, 3:00 AM)30.48 "Hg (Dec 12, 3:00 AM)
Low39 °F (Dec 8, 5:00 AM)44% (Dec 7, 3:00 PM)29.74 "Hg (Dec 14, 9:00 AM)
Average51 °F85%30.26 "Hg
* Reported Dec 6 3:00 PM — Dec 21 3:00 PM, Cadiz, Weather by CustomWeather, © 2014

Note: Actual official high and low records may vary slightly from our data, if they occured in-between our weather recording intervals... More about our weather records

Advertising

Cadiz weather history for previous 24 hours

 ConditionsComfort  
Time TempWeatherWind HumidityBarometerVisibility
3:00 PM
Dec 21
54 °FPassing clouds.12 mph94%30.36 "Hg5 mi
2:49 PM52 °FPassing clouds.12 mph100%30.36 "Hg5 mi
2:00 PM52 °FFog.10 mph100%30.39 "Hg1 mi
1:00 PM48 °FFog.10 mph100%30.42 "Hg0 mi
12:00 PM46 °FFog.10 mph100%30.45 "Hg0 mi
11:00 AM45 °FFog.9 mph100%30.45 "Hg0 mi
10:00 AM45 °FFog.6 mph100%30.42 "Hg0 mi
9:00 AM43 °FFog.6 mph100%30.42 "Hg0 mi
8:00 AM45 °FFog.6 mph100%30.42 "Hg0 mi
7:00 AM46 °FFog.2 mph100%30.39 "Hg0 mi
6:00 AM46 °FFog.3 mph100%30.39 "Hg0 mi
5:00 AM46 °FFog.3 mph100%30.42 "Hg0 mi
4:00 AM48 °FFog.2 mph100%30.42 "Hg0 mi
3:00 AM50 °FFog.No wind100%30.42 "Hg0 mi
2:00 AM50 °FFog.2 mph100%30.42 "Hg0 mi
1:00 AM50 °FFog.5 mph100%30.42 "Hg0 mi
12:00 AM46 °FFog.6 mph100%30.42 "Hg0 mi
11:00 PM
Dec 20
46 °FFog.2 mph100%30.42 "Hg0 mi
10:00 PM48 °FFog.2 mph100%30.42 "Hg0 mi
9:00 PM48 °FFog.1 mph100%30.42 "Hg0 mi
8:00 PM48 °FFog.No wind100%30.42 "Hg0 mi
7:00 PM50 °FFog.1 mph100%30.39 "Hg0 mi
6:00 PM50 °FFog.2 mph100%30.39 "Hg1 mi
5:00 PM50 °FFog.3 mph100%30.39 "Hg1 mi
4:00 PM48 °FFog.5 mph100%30.39 "Hg1 mi
Weather by CustomWeather, © 2014

See weather overviewHow to use our weather pages